sat.trackr.live / text

‹ back to catalog

STARLINK-30377

NORAD 57825 · 2023-138T

PAYLOAD ACTIVE UNKNOWN

§ Identity

Operator
Country
US
Launch date
2023-09-09
Launch site
AFETR
Launch vehicle
Mass (kg)
RCS (m²)

Purposes: comms

External: N2YO · Heavens-Above · Gunter

§ Orbital elements

Epoch: 2026-05-25T01:51:20.276928Z

Period
94.27 min
Inclination
43.0017°
Eccentricity
0.0001518
Mean motion
15.27572016 rev/d
Perigee alt
482.0 km
Apogee alt
484.1 km
Semi-major
6,861.2 km
B*
3.5062e-5
RAAN
162.5421°
Arg perigee
270.8615°
Mean anomaly
89.2062°
Rev number
15,031

§ Raw data

STARLINK-303771 57825U 23138T   26145.07731802  .00000703  00000+0  35062-4 0  99992 57825  43.0017 162.5421 0001518 270.8615  89.2062 15.27572016150312

JSON: /api/v1/satellites/57825 · /tle

For live sub-satellite position, see the globe view (requires WebGL).

§ Visibility from observer

Set your observer location to see the next 7 days of passes ≥ 10°. The values pass through the URL so the page stays shareable.

No JS? Fill the form by hand. The geolocation button needs JavaScript.